Погода в Камене

Германия     51°35′36″N   7°39′13″E
темп.,
°C
ветер,
м/с
пор.,
м/с
влажн.,
%
обл.,
%
осадки,
мм/ч
давл.,
гПа
погр.,
м
19 января, вт
вт1901:00+4юз51290100 0.2 1018706
04:00+4юз71485100 0.1 1015860
07:00+3ююз81683100 0.1 1011674
10:00+5ююз91789100 6.1 10071042
13:00+7зюз101985100 9.5 1006972
16:00+8зюз81786100 0.4 1006975
19:00+8юз71584100 0.8 10071054
22:00+7юз71580100 0.1 1007862
20 января, ср
ср2001:00+6юз71579100 0.1 1006961
04:00+5ююз81766100 0.0 1004724
07:00+7юз71672100 0.1 1003966
10:00+7ююз81872100 0.3 10021013
13:00+7ююз81673100 0.4 1002932
16:00+8ююз71659100 0.0 1000847
19:00+8ююз81872100 0.0 999785
22:00+8ююз81776100 0.0 997835
21 января, чт
чт2101:00+7ю7177785 0.0 9961116
04:00+9ююз9217186 0.0 9931372
07:00+9ююз10227280 0.1 9901542
10:00+5юз9176985 3.7 992993
13:00+8юз7136076 3.7 9941341
16:00+6ююз61361100 0.0 9931232
19:00+5ююз6147299 0.0 992940
22:00+5ююз4119099 0.9 988693
22 января, пт
пт2201:00+9ююз82074100 3.8 9851551
04:00+7зюз91589100 3.3 9851166
07:00+4зюз7138299 4.6 9891116
10:00+4зюз7137598 0.1 9931158
13:00+5зюз8136784 0.1 9951488
16:00+5юз6126878 0.1 9961358
19:00+3юз5127761 0.1 998693
22:00+2юз411830 0.0 999436
23 января, сб
сб2301:00+2ю4108412 0.0 999348
04:00+3ююз51191100 0.2 997783
07:00+2ююз51095100 0.6 996622
10:00+3юз61188100 0.6 996897
13:00+3юз61293100 1.6 996912
16:00+3юз4889100 0.9 995765
19:00+2сз3597100 0.6 989272
22:00+2зсз5897100 1.0 991472